Find Starlink 4147

NORAD ID: 53256 Int'l Des: 2022-086 Owner: SPXS Country: US Constellation: starlink operational
LEOCIRCULAR

Live Position

Loading 3D Globe...

About Starlink 4147

Description loading...

Upcoming Passes

Passes for default location (London). Set your location on the main map for personalized predictions.

Altitude History

Loading altitude history...

Two-Line Element Set

1 53256U 22086Q 26121.95192220 -.00000874 00000-0 -36850-4 0 9998
2 53256 53.2174 315.0182 0001436 91.0903 269.0254 15.08839799209100
Epoch: May 1, 2026 • Age: 6 hours

Current Status

Altitude 558.9 km
Velocity 7.58 km/s
Sub-Earth Point -52.28°S, 83.66°W
Launch Date Jul 24, 2022
Age 3.7 years
Type internet

Technical Details

Classification Payload
Mass 297.00 kg
Dry Mass 275.00 kg
Total Mass 297.00 kg
Length 0.20 m
Diameter 2.80 m
Span 9.00 m
Shape Box + pan
Manufacturer SPXS
Bus Type Starlink
Phase Status In Orbit
Owner/State SPXS/US

Most Searched